Time,TemperatureF,DewpointF,PressureIn,WindDirection,WindDirectionDegrees,WindSpeedMPH,WindSpeedGustMPH,Humidity,HourlyPrecipIn,Conditions,Clouds,dailyrainin,SoftwareType,DateUTC
2013-08-21 00:02:00,71.4,65.3,30.08,SSE,157,0.0,0.0,81,0.00,,,0.00,WUHU21623XXSP,2013-08-21 05:02:00,
2013-08-21 00:07:00,71.1,64.9,30.08,SSE,157,0.0,0.0,81,0.00,,,0.00,WUHU21623XXSP,2013-08-21 05:07:00,
2013-08-21 00:12:00,70.7,64.7,30.08,SSE,157,0.0,0.0,82,0.00,,,0.00,WUHU21623XXSP,2013-08-21 05:12:00,
2013-08-21 00:17:00,70.5,64.9,30.08,SSE,157,0.0,0.0,82,0.00,,,0.00,WUHU21623XXSP,2013-08-21 05:17:00,
2013-08-21 00:22:00,70.3,64.5,30.08,SSE,157,0.0,0.0,82,0.00,,,0.00,WUHU21623XXSP,2013-08-21 05:22:00,
2013-08-21 00:27:00,70.2,64.4,30.08,SSE,157,0.0,0.0,82,0.00,,,0.00,WUHU21623XXSP,2013-08-21 05:27:00,
2013-08-21 00:32:00,70.0,64.5,30.08,SSE,157,0.0,0.0,83,0.00,,,0.00,WUHU21623XXSP,2013-08-21 05:32:00,
2013-08-21 00:37:00,69.6,64.2,30.08,SSE,157,0.0,0.0,83,0.00,,,0.00,WUHU21623XXSP,2013-08-21 05:37:00,
2013-08-21 00:42:00,69.4,64.2,30.08,SSE,157,0.0,0.0,84,0.00,,,0.00,WUHU21623XXSP,2013-08-21 05:42:00,
2013-08-21 00:47:00,69.4,64.3,30.08,SSE,157,0.0,0.0,84,0.00,,,0.00,WUHU21623XXSP,2013-08-21 05:47:00,
2013-08-21 00:52:00,69.1,64.0,30.08,SSE,157,0.0,0.0,84,0.00,,,0.00,WUHU21623XXSP,2013-08-21 05:52:00,
2013-08-21 00:57:00,68.9,64.0,30.08,SSE,157,0.0,0.0,85,0.00,,,0.00,WUHU21623XXSP,2013-08-21 05:57:00,
2013-08-21 01:02:00,68.9,64.2,30.08,SSE,157,0.0,0.0,85,0.00,,,0.00,WUHU21623XXSP,2013-08-21 06:02:00,
2013-08-21 01:09:00,68.9,64.2,30.08,SSE,157,0.0,0.0,85,0.00,,,0.00,WUHU21623XXSP,2013-08-21 06:09:00,
2013-08-21 01:14:00,68.9,64.5,30.08,SSE,157,0.0,0.0,86,0.00,,,0.00,WUHU21623XXSP,2013-08-21 06:14:00,
2013-08-21 01:19:00,68.9,64.5,30.08,SSE,157,0.0,0.0,86,0.00,,,0.00,WUHU21623XXSP,2013-08-21 06:19:00,
2013-08-21 01:24:00,68.9,64.5,30.08,SSE,157,0.0,0.0,86,0.00,,,0.00,WUHU21623XXSP,2013-08-21 06:24:00,
2013-08-21 01:29:00,68.9,64.5,30.08,SSE,157,0.0,0.0,86,0.00,,,0.00,WUHU21623XXSP,2013-08-21 06:29:00,
2013-08-21 01:34:00,68.7,64.3,30.08,SSE,157,0.0,0.0,86,0.00,,,0.00,WUHU21623XXSP,2013-08-21 06:34:00,
2013-08-21 01:39:00,68.7,64.3,30.08,SSE,157,0.0,0.0,86,0.00,,,0.00,WUHU21623XXSP,2013-08-21 06:39:00,
2013-08-21 01:44:00,68.5,64.1,30.08,SSE,157,0.0,0.0,86,0.00,,,0.00,WUHU21623XXSP,2013-08-21 06:44:00,
2013-08-21 01:49:00,68.4,64.0,30.08,SSE,157,0.0,0.0,86,0.00,,,0.00,WUHU21623XXSP,2013-08-21 06:49:00,
2013-08-21 01:54:00,68.4,63.8,30.08,SSE,157,0.0,0.0,86,0.00,,,0.00,WUHU21623XXSP,2013-08-21 06:54:00,
2013-08-21 01:59:00,67.8,63.8,30.08,SSE,157,0.0,0.0,87,0.00,,,0.00,WUHU21623XXSP,2013-08-21 06:59:00,
2013-08-21 02:04:00,67.6,63.6,30.08,SSE,157,0.0,0.0,87,0.00,,,0.00,WUHU21623XXSP,2013-08-21 07:04:00,
2013-08-21 02:09:00,67.3,63.2,30.08,SSE,157,0.0,0.0,87,0.00,,,0.00,WUHU21623XXSP,2013-08-21 07:09:00,
2013-08-21 02:14:00,67.1,63.2,30.08,SSE,157,0.0,0.0,87,0.00,,,0.00,WUHU21623XXSP,2013-08-21 07:14:00,
2013-08-21 02:19:00,66.7,62.7,30.08,SSE,157,0.0,0.0,87,0.00,,,0.00,WUHU21623XXSP,2013-08-21 07:19:00,
2013-08-21 02:24:00,66.6,63.0,30.08,SSE,157,0.0,0.0,88,0.00,,,0.00,WUHU21623XXSP,2013-08-21 07:24:00,
2013-08-21 02:29:00,66.4,62.9,30.08,SSE,157,0.0,0.0,88,0.00,,,0.00,WUHU21623XXSP,2013-08-21 07:29:00,
2013-08-21 02:34:00,66.4,62.7,30.08,SSE,157,0.0,0.0,88,0.00,,,0.00,WUHU21623XXSP,2013-08-21 07:34:00,
2013-08-21 02:39:00,66.2,62.2,30.08,SSE,157,0.0,0.0,87,0.00,,,0.00,WUHU21623XXSP,2013-08-21 07:39:00,
2013-08-21 02:44:00,66.0,62.0,30.08,SSE,157,0.0,0.0,87,0.00,,,0.00,WUHU21623XXSP,2013-08-21 07:44:00,
2013-08-21 02:49:00,66.0,62.0,30.08,SSE,157,0.0,0.0,88,0.00,,,0.00,WUHU21623XXSP,2013-08-21 07:49:00,
2013-08-21 02:54:00,65.8,62.2,30.08,SSE,157,0.0,0.0,88,0.00,,,0.00,WUHU21623XXSP,2013-08-21 07:54:00,
2013-08-21 02:59:00,65.7,62.0,30.08,SSE,157,0.0,0.0,88,0.00,,,0.00,WUHU21623XXSP,2013-08-21 07:59:00,
2013-08-21 03:04:00,65.7,62.0,30.07,SSE,157,0.0,0.0,88,0.00,,,0.00,WUHU21623XXSP,2013-08-21 08:04:00,
2013-08-21 03:09:00,65.5,61.8,30.08,SSE,157,0.0,0.0,88,0.00,,,0.00,WUHU21623XXSP,2013-08-21 08:09:00,
2013-08-21 03:14:00,65.3,61.3,30.08,SSE,157,0.0,0.0,87,0.00,,,0.00,WUHU21623XXSP,2013-08-21 08:14:00,
2013-08-21 03:19:00,65.5,61.5,30.08,SSE,157,0.0,0.0,87,0.00,,,0.00,WUHU21623XXSP,2013-08-21 08:19:00,
2013-08-21 03:25:00,65.5,61.5,30.08,SSE,157,0.0,0.0,87,0.00,,,0.00,WUHU21623XXSP,2013-08-21 08:25:00,
2013-08-21 03:30:00,65.3,61.3,30.08,SSE,157,0.0,0.0,87,0.00,,,0.00,WUHU21623XXSP,2013-08-21 08:30:00,
2013-08-21 03:35:00,65.3,61.3,30.08,SSE,157,0.0,0.0,87,0.00,,,0.00,WUHU21623XXSP,2013-08-21 08:35:00,
2013-08-21 03:40:00,65.3,61.3,30.07,SSE,157,0.0,0.0,87,0.00,,,0.00,WUHU21623XXSP,2013-08-21 08:40:00,
2013-08-21 03:45:00,65.3,61.2,30.08,SSE,157,0.0,0.0,87,0.00,,,0.00,WUHU21623XXSP,2013-08-21 08:45:00,
2013-08-21 03:50:00,65.1,61.2,30.07,SSE,157,0.0,0.0,87,0.00,,,0.00,WUHU21623XXSP,2013-08-21 08:50:00,
2013-08-21 03:55:00,65.3,61.3,30.08,SSE,157,0.0,0.0,87,0.00,,,0.00,WUHU21623XXSP,2013-08-21 08:55:00,
2013-08-21 04:00:00,65.3,61.3,30.08,SSE,157,0.0,0.0,87,0.00,,,0.00,WUHU21623XXSP,2013-08-21 09:00:00,
2013-08-21 04:05:00,65.5,61.5,30.08,SSE,157,0.0,0.0,87,0.00,,,0.00,WUHU21623XXSP,2013-08-21 09:05:00,
2013-08-21 04:10:00,65.8,61.5,30.07,SSE,157,0.0,0.0,86,0.00,,,0.00,WUHU21623XXSP,2013-08-21 09:10:00,
2013-08-21 04:15:00,65.8,61.5,30.07,SSE,157,0.0,0.0,86,0.00,,,0.00,WUHU21623XXSP,2013-08-21 09:15:00,
2013-08-21 04:20:00,65.8,61.5,30.07,SSE,157,0.0,0.0,86,0.00,,,0.00,WUHU21623XXSP,2013-08-21 09:20:00,
2013-08-21 04:25:00,65.8,61.5,30.08,SSE,157,0.0,0.0,86,0.00,,,0.00,WUHU21623XXSP,2013-08-21 09:25:00,
2013-08-21 04:30:00,65.7,61.3,30.08,SSE,157,0.0,0.0,86,0.00,,,0.00,WUHU21623XXSP,2013-08-21 09:30:00,
2013-08-21 04:35:00,65.7,61.3,30.08,SSE,157,0.0,0.0,86,0.00,,,0.00,WUHU21623XXSP,2013-08-21 09:35:00,
2013-08-21 04:40:00,65.8,61.5,30.08,SSE,157,0.0,0.0,86,0.00,,,0.00,WUHU21623XXSP,2013-08-21 09:40:00,
2013-08-21 04:45:00,66.0,61.7,30.08,SSE,157,0.0,0.0,86,0.00,,,0.00,WUHU21623XXSP,2013-08-21 09:45:00,
2013-08-21 04:50:00,66.0,61.7,30.08,SSE,157,0.0,0.0,86,0.00,,,0.00,WUHU21623XXSP,2013-08-21 09:50:00,
2013-08-21 04:55:00,66.0,61.7,30.08,SSE,157,0.0,0.0,86,0.00,,,0.00,WUHU21623XXSP,2013-08-21 09:55:00,
2013-08-21 05:00:00,66.2,61.8,30.08,SSE,157,0.0,0.0,86,0.00,,,0.00,WUHU21623XXSP,2013-08-21 10:00:00,
2013-08-21 05:05:00,66.2,61.8,30.08,SSE,157,0.0,0.0,86,0.00,,,0.00,WUHU21623XXSP,2013-08-21 10:05:00,
2013-08-21 05:10:00,66.2,61.8,30.08,SSE,157,0.0,0.0,86,0.00,,,0.00,WUHU21623XXSP,2013-08-21 10:10:00,
2013-08-21 05:15:00,66.2,61.8,30.08,SSE,157,0.0,0.0,86,0.00,,,0.00,WUHU21623XXSP,2013-08-21 10:15:00,
2013-08-21 05:20:00,66.0,61.7,30.08,SSE,157,0.0,0.0,86,0.00,,,0.00,WUHU21623XXSP,2013-08-21 10:20:00,
2013-08-21 05:25:00,66.0,62.0,30.08,SSE,157,0.0,0.0,87,0.00,,,0.00,WUHU21623XXSP,2013-08-21 10:25:00,
2013-08-21 05:30:00,65.8,62.0,30.08,SSE,157,0.0,0.0,87,0.00,,,0.00,WUHU21623XXSP,2013-08-21 10:30:00,
2013-08-21 05:35:00,65.8,61.8,30.09,SSE,157,0.0,0.0,87,0.00,,,0.00,WUHU21623XXSP,2013-08-21 10:35:00,
2013-08-21 05:40:00,65.8,61.8,30.09,SSE,157,0.0,0.0,87,0.00,,,0.00,WUHU21623XXSP,2013-08-21 10:40:00,
2013-08-21 05:46:00,65.5,61.5,30.09,SSE,157,0.0,0.0,87,0.00,,,0.00,WUHU21623XXSP,2013-08-21 10:46:00,
2013-08-21 05:51:00,65.3,61.5,30.09,SSE,157,0.0,0.0,87,0.00,,,0.00,WUHU21623XXSP,2013-08-21 10:51:00,
2013-08-21 05:56:00,65.3,61.3,30.09,SSE,157,0.0,0.0,87,0.00,,,0.00,WUHU21623XXSP,2013-08-21 10:56:00,
2013-08-21 06:01:00,65.1,61.2,30.09,SSE,157,0.0,0.0,87,0.00,,,0.00,WUHU21623XXSP,2013-08-21 11:01:00,
2013-08-21 06:06:00,64.9,61.0,30.09,SSE,157,0.0,0.0,87,0.00,,,0.00,WUHU21623XXSP,2013-08-21 11:06:00,
2013-08-21 06:11:00,64.9,61.0,30.09,SSE,157,0.0,0.0,87,0.00,,,0.00,WUHU21623XXSP,2013-08-21 11:11:00,
2013-08-21 06:16:00,64.9,61.0,30.10,SSE,157,0.0,0.0,87,0.00,,,0.00,WUHU21623XXSP,2013-08-21 11:16:00,
2013-08-21 06:21:00,64.8,60.8,30.10,SSE,157,0.0,0.0,87,0.00,,,0.00,WUHU21623XXSP,2013-08-21 11:21:00,
2013-08-21 06:26:00,64.8,60.8,30.10,SSE,157,0.0,0.0,87,0.00,,,0.00,WUHU21623XXSP,2013-08-21 11:26:00,
2013-08-21 06:31:00,64.8,60.8,30.10,SSE,157,0.0,0.0,87,0.00,,,0.00,WUHU21623XXSP,2013-08-21 11:31:00,
2013-08-21 06:36:00,64.8,60.8,30.10,SSE,157,0.0,0.0,87,0.00,,,0.00,WUHU21623XXSP,2013-08-21 11:36:00,
2013-08-21 06:41:00,64.9,61.0,30.10,SSE,157,0.0,0.0,87,0.00,,,0.00,WUHU21623XXSP,2013-08-21 11:41:00,
2013-08-21 06:46:00,65.1,61.2,30.10,SSE,157,0.0,0.0,87,0.00,,,0.00,WUHU21623XXSP,2013-08-21 11:46:00,
2013-08-21 06:51:00,65.3,61.0,30.10,SSE,157,0.0,0.0,86,0.00,,,0.00,WUHU21623XXSP,2013-08-21 11:51:00,
2013-08-21 06:56:00,65.8,61.5,30.10,SSE,157,0.0,0.0,86,0.00,,,0.00,WUHU21623XXSP,2013-08-21 11:56:00,
2013-08-21 07:01:00,66.0,61.7,30.10,SSE,157,0.0,0.0,86,0.00,,,0.00,WUHU21623XXSP,2013-08-21 12:01:00,
2013-08-21 07:06:00,66.4,61.7,30.10,SSE,157,0.0,0.0,85,0.00,,,0.00,WUHU21623XXSP,2013-08-21 12:06:00,
2013-08-21 07:11:00,66.7,62.1,30.11,SSE,157,0.0,0.0,85,0.00,,,0.00,WUHU21623XXSP,2013-08-21 12:11:00,
2013-08-21 07:16:00,67.1,62.4,30.11,SSE,157,0.0,0.0,85,0.00,,,0.00,WUHU21623XXSP,2013-08-21 12:16:00,
2013-08-21 07:21:00,67.6,63.0,30.11,SSE,157,0.0,0.0,85,0.00,,,0.00,WUHU21623XXSP,2013-08-21 12:21:00,
2013-08-21 07:26:00,68.5,63.8,30.11,SSE,157,0.0,0.0,85,0.00,,,0.00,WUHU21623XXSP,2013-08-21 12:26:00,
2013-08-21 07:31:00,69.1,64.3,30.11,SSE,157,0.0,0.0,86,0.00,,,0.00,WUHU21623XXSP,2013-08-21 12:31:00,
2013-08-21 07:36:00,69.6,65.0,30.11,SSE,157,0.0,0.0,86,0.00,,,0.00,WUHU21623XXSP,2013-08-21 12:36:00,
2013-08-21 07:41:00,70.7,66.6,30.11,SSE,157,0.0,0.0,87,0.00,,,0.00,WUHU21623XXSP,2013-08-21 12:41:00,
2013-08-21 07:46:00,71.2,67.2,30.11,SSE,157,1.1,1.1,87,0.00,,,0.00,WUHU21623XXSP,2013-08-21 12:46:00,
2013-08-21 07:51:00,71.6,67.5,30.11,SSE,157,0.0,1.1,87,0.00,,,0.00,WUHU21623XXSP,2013-08-21 12:51:00,
2013-08-21 07:56:00,72.1,68.1,30.11,SSE,157,0.0,0.0,87,0.00,,,0.00,WUHU21623XXSP,2013-08-21 12:56:00,
2013-08-21 08:01:00,72.5,68.4,30.12,SSE,157,0.0,0.0,87,0.00,,,0.00,WUHU21623XXSP,2013-08-21 13:01:00,
2013-08-21 08:06:00,73.0,68.8,30.12,SSE,157,0.0,0.0,86,0.00,,,0.00,WUHU21623XXSP,2013-08-21 13:06:00,
2013-08-21 08:11:00,73.8,69.0,30.11,SSE,157,0.0,0.0,85,0.00,,,0.00,WUHU21623XXSP,2013-08-21 13:11:00,
2013-08-21 08:17:00,74.3,69.5,30.11,SSE,157,0.0,0.0,85,0.00,,,0.00,WUHU21623XXSP,2013-08-21 13:17:00,
2013-08-21 08:22:00,75.0,69.6,30.11,SSE,157,0.0,0.0,83,0.00,,,0.00,WUHU21623XXSP,2013-08-21 13:22:00,
2013-08-21 08:27:00,75.6,69.7,30.11,SSE,157,0.7,0.7,82,0.00,,,0.00,WUHU21623XXSP,2013-08-21 13:27:00,
2013-08-21 08:32:00,75.9,69.9,30.12,SSE,157,0.0,0.7,81,0.00,,,0.00,WUHU21623XXSP,2013-08-21 13:32:00,
2013-08-21 08:37:00,76.6,70.0,30.11,SSE,157,0.0,0.0,80,0.00,,,0.00,WUHU21623XXSP,2013-08-21 13:37:00,
2013-08-21 08:42:00,77.2,70.2,30.11,SSE,157,0.0,0.0,80,0.00,,,0.00,WUHU21623XXSP,2013-08-21 13:42:00,
2013-08-21 08:47:00,77.7,70.3,30.11,SSE,157,0.0,0.0,78,0.00,,,0.00,WUHU21623XXSP,2013-08-21 13:47:00,
2013-08-21 08:52:00,78.6,70.0,30.11,SW,225,0.0,0.0,75,0.00,,,0.00,WUHU21623XXSP,2013-08-21 13:52:00,
2013-08-21 08:57:00,79.2,70.3,30.11,South,180,0.0,0.0,74,0.00,,,0.00,WUHU21623XXSP,2013-08-21 13:57:00,
2013-08-21 09:02:00,79.7,69.9,30.11,SSW,202,7.4,7.4,72,0.00,,,0.00,WUHU21623XXSP,2013-08-21 14:02:00,
2013-08-21 09:07:00,80.4,70.2,30.11,WSW,247,0.0,7.4,71,0.00,,,0.00,WUHU21623XXSP,2013-08-21 14:07:00,
2013-08-21 09:12:00,80.8,70.5,30.11,SW,225,0.0,0.0,71,0.00,,,0.00,WUHU21623XXSP,2013-08-21 14:12:00,
2013-08-21 09:17:00,81.0,70.7,30.11,WSW,247,0.0,0.0,71,0.00,,,0.00,WUHU21623XXSP,2013-08-21 14:17:00,
2013-08-21 09:22:00,81.7,70.5,30.11,SSW,202,6.3,6.3,69,0.00,,,0.00,WUHU21623XXSP,2013-08-21 14:22:00,
2013-08-21 09:27:00,82.0,70.5,30.11,South,180,7.6,7.6,68,0.00,,,0.00,WUHU21623XXSP,2013-08-21 14:27:00,
2013-08-21 09:32:00,82.2,70.5,30.11,WSW,247,0.0,7.6,68,0.00,,,0.00,WUHU21623XXSP,2013-08-21 14:32:00,
2013-08-21 09:37:00,82.6,70.4,30.10,WSW,247,0.0,0.0,67,0.00,,,0.00,WUHU21623XXSP,2013-08-21 14:37:00,
2013-08-21 09:42:00,82.8,70.6,30.10,SW,225,0.0,0.0,67,0.00,,,0.00,WUHU21623XXSP,2013-08-21 14:42:00,
2013-08-21 09:47:00,83.1,71.0,30.10,WSW,247,0.0,0.0,67,0.00,,,0.00,WUHU21623XXSP,2013-08-21 14:47:00,
2013-08-21 09:52:00,83.5,70.9,30.11,SSW,202,0.0,0.0,65,0.00,,,0.00,WUHU21623XXSP,2013-08-21 14:52:00,
2013-08-21 09:57:00,84.0,71.0,30.10,South,180,5.4,5.4,65,0.00,,,0.00,WUHU21623XXSP,2013-08-21 14:57:00,
2013-08-21 10:02:00,84.0,71.0,30.11,WSW,247,0.0,5.4,64,0.00,,,0.00,WUHU21623XXSP,2013-08-21 15:02:00,
2013-08-21 10:07:00,84.4,70.4,30.11,WSW,247,5.8,6.7,63,0.00,,,0.00,WUHU21623XXSP,2013-08-21 15:07:00,
2013-08-21 10:12:00,84.4,70.4,30.11,SSW,202,8.3,8.3,63,0.00,,,0.00,WUHU21623XXSP,2013-08-21 15:12:00,
2013-08-21 10:17:00,84.7,70.7,30.11,SSW,202,0.0,8.3,63,0.00,,,0.00,WUHU21623XXSP,2013-08-21 15:17:00,
2013-08-21 10:22:00,84.7,70.3,30.11,SW,225,0.0,5.6,62,0.00,,,0.00,WUHU21623XXSP,2013-08-21 15:22:00,
2013-08-21 10:27:00,85.1,71.1,30.11,SSW,202,0.0,7.4,63,0.00,,,0.00,WUHU21623XXSP,2013-08-21 15:27:00,
2013-08-21 10:32:00,85.6,70.6,30.11,SSW,202,0.0,7.4,61,0.00,,,0.00,WUHU21623XXSP,2013-08-21 15:32:00,
2013-08-21 10:37:00,85.6,70.6,30.11,South,180,0.0,0.0,61,0.00,,,0.00,WUHU21623XXSP,2013-08-21 15:37:00,
2013-08-21 10:42:00,86.2,71.2,30.10,SSW,202,4.5,4.5,61,0.00,,,0.00,WUHU21623XXSP,2013-08-21 15:42:00,
2013-08-21 10:47:00,86.4,70.7,30.11,WSW,247,0.0,4.5,60,0.00,,,0.00,WUHU21623XXSP,2013-08-21 15:47:00,
2013-08-21 10:52:00,86.5,71.1,30.11,WSW,247,0.0,0.0,60,0.00,,,0.00,WUHU21623XXSP,2013-08-21 15:52:00,
2013-08-21 10:57:00,86.5,70.0,30.10,WSW,247,0.0,0.0,58,0.00,,,0.00,WUHU21623XXSP,2013-08-21 15:57:00,
2013-08-21 11:02:00,86.5,70.0,30.11,WSW,247,0.0,0.0,58,0.00,,,0.00,WUHU21623XXSP,2013-08-21 16:02:00,
2013-08-21 11:08:00,86.5,70.0,30.11,WSW,247,0.0,0.0,58,0.00,,,0.00,WUHU21623XXSP,2013-08-21 16:08:00,
2013-08-21 11:13:00,86.7,70.2,30.10,WSW,247,0.0,0.0,58,0.00,,,0.00,WUHU21623XXSP,2013-08-21 16:13:00,
2013-08-21 11:18:00,87.3,70.7,30.10,WSW,247,0.0,0.0,58,0.00,,,0.00,WUHU21623XXSP,2013-08-21 16:18:00,
2013-08-21 11:23:00,87.3,70.2,30.10,SSW,202,1.1,1.1,57,0.00,,,0.00,WUHU21623XXSP,2013-08-21 16:23:00,
2013-08-21 11:28:00,87.4,69.8,30.10,West,270,0.0,1.1,56,0.00,,,0.00,WUHU21623XXSP,2013-08-21 16:28:00,
2013-08-21 11:33:00,87.4,69.8,30.10,South,180,5.6,7.2,56,0.00,,,0.00,WUHU21623XXSP,2013-08-21 16:33:00,
2013-08-21 11:38:00,88.3,70.3,30.10,South,180,5.8,7.2,55,0.00,,,0.00,WUHU21623XXSP,2013-08-21 16:38:00,
2013-08-21 11:43:00,88.7,70.4,30.10,South,180,13.6,13.6,55,0.00,,,0.00,WUHU21623XXSP,2013-08-21 16:43:00,
2013-08-21 11:48:00,89.4,69.7,30.10,SSW,202,3.4,13.6,53,0.00,,,0.00,WUHU21623XXSP,2013-08-21 16:48:00,
2013-08-21 11:53:00,89.8,70.3,30.09,WSW,247,4.5,6.5,53,0.00,,,0.00,WUHU21623XXSP,2013-08-21 16:53:00,
2013-08-21 11:58:00,90.3,70.6,30.09,SW,225,4.7,4.7,52,0.00,,,0.00,WUHU21623XXSP,2013-08-21 16:58:00,
2013-08-21 12:03:00,90.9,70.6,30.09,SW,225,0.0,4.7,52,0.00,,,0.00,WUHU21623XXSP,2013-08-21 17:03:00,
2013-08-21 12:08:00,90.7,70.1,30.09,SW,225,0.0,0.0,50,0.00,,,0.00,WUHU21623XXSP,2013-08-21 17:08:00,
2013-08-21 12:13:00,90.7,69.5,30.09,South,180,7.2,7.2,50,0.00,,,0.00,WUHU21623XXSP,2013-08-21 17:13:00,
2013-08-21 12:18:00,91.2,70.5,30.09,SSW,202,0.0,7.2,51,0.00,,,0.00,WUHU21623XXSP,2013-08-21 17:18:00,
2013-08-21 12:23:00,91.6,69.7,30.09,SSE,157,4.5,4.9,49,0.00,,,0.00,WUHU21623XXSP,2013-08-21 17:23:00,
2013-08-21 12:28:00,91.2,69.3,30.09,South,180,8.9,8.9,49,0.00,,,0.00,WUHU21623XXSP,2013-08-21 17:28:00,
2013-08-21 12:33:00,90.7,68.9,30.09,SW,225,0.0,8.9,49,0.00,,,0.00,WUHU21623XXSP,2013-08-21 17:33:00,
2013-08-21 12:38:00,89.8,68.7,30.09,WSW,247,0.0,0.0,50,0.00,,,0.00,WUHU21623XXSP,2013-08-21 17:38:00,
2013-08-21 12:43:00,89.6,68.5,30.09,West,270,4.7,10.3,51,0.00,,,0.00,WUHU21623XXSP,2013-08-21 17:43:00,
2013-08-21 12:48:00,89.8,68.1,30.08,WNW,292,0.0,10.3,49,0.00,,,0.00,WUHU21623XXSP,2013-08-21 17:48:00,
2013-08-21 12:53:00,89.8,68.1,30.08,WSW,247,0.0,0.0,50,0.00,,,0.00,WUHU21623XXSP,2013-08-21 17:53:00,
2013-08-21 12:58:00,89.4,68.9,30.08,SW,225,6.7,8.9,51,0.00,,,0.00,WUHU21623XXSP,2013-08-21 17:58:00,
2013-08-21 13:03:00,90.1,69.0,30.08,SW,225,0.0,8.9,50,0.00,,,0.00,WUHU21623XXSP,2013-08-21 18:03:00,
2013-08-21 13:08:00,90.1,69.0,30.08,SW,225,0.0,0.0,50,0.00,,,0.00,WUHU21623XXSP,2013-08-21 18:08:00,
2013-08-21 13:13:00,89.4,68.4,30.08,WSW,247,0.0,0.0,50,0.00,,,0.00,WUHU21623XXSP,2013-08-21 18:13:00,
2013-08-21 13:18:00,89.6,68.4,30.08,WSW,247,0.0,0.0,50,0.00,,,0.00,WUHU21623XXSP,2013-08-21 18:18:00,
2013-08-21 13:23:00,90.1,68.4,30.08,WSW,247,0.0,0.0,49,0.00,,,0.00,WUHU21623XXSP,2013-08-21 18:23:00,
2013-08-21 13:28:00,90.3,68.5,30.08,West,270,2.0,2.7,49,0.00,,,0.00,WUHU21623XXSP,2013-08-21 18:28:00,
2013-08-21 13:33:00,90.7,68.7,30.08,South,180,0.0,2.7,49,0.00,,,0.00,WUHU21623XXSP,2013-08-21 18:33:00,
2013-08-21 13:38:00,91.2,69.3,30.08,SSW,202,0.0,2.0,49,0.00,,,0.00,WUHU21623XXSP,2013-08-21 18:38:00,
2013-08-21 13:43:00,91.6,68.4,30.07,West,270,0.0,9.4,47,0.00,,,0.00,WUHU21623XXSP,2013-08-21 18:43:00,
2013-08-21 13:48:00,91.6,69.0,30.07,WSW,247,0.0,9.4,48,0.00,,,0.00,WUHU21623XXSP,2013-08-21 18:48:00,
2013-08-21 13:53:00,91.4,68.9,30.07,WSW,247,0.0,0.0,48,0.00,,,0.00,WUHU21623XXSP,2013-08-21 18:53:00,
2013-08-21 13:58:00,91.8,68.5,30.07,West,270,0.0,6.0,47,0.00,,,0.00,WUHU21623XXSP,2013-08-21 18:58:00,
2013-08-21 14:04:00,91.4,68.2,30.07,WSW,247,0.0,6.0,47,0.00,,,0.00,WUHU21623XXSP,2013-08-21 19:04:00,
2013-08-21 14:09:00,91.6,68.9,30.07,South,180,0.0,0.9,48,0.00,,,0.00,WUHU21623XXSP,2013-08-21 19:09:00,
2013-08-21 14:14:00,91.9,68.7,30.07,WSW,247,0.4,0.9,47,0.00,,,0.00,WUHU21623XXSP,2013-08-21 19:14:00,
2013-08-21 14:19:00,91.6,68.4,30.07,SW,225,0.0,5.1,47,0.00,,,0.00,WUHU21623XXSP,2013-08-21 19:19:00,
2013-08-21 14:24:00,91.8,68.5,30.06,WSW,247,3.8,5.1,47,0.00,,,0.00,WUHU21623XXSP,2013-08-21 19:24:00,
2013-08-21 14:29:00,91.8,68.5,30.06,SSW,202,0.7,3.8,47,0.00,,,0.00,WUHU21623XXSP,2013-08-21 19:29:00,
2013-08-21 14:34:00,91.9,68.7,30.06,SSW,202,0.7,0.7,47,0.00,,,0.00,WUHU21623XXSP,2013-08-21 19:34:00,
2013-08-21 14:39:00,91.8,68.5,30.06,SSW,202,6.0,6.9,47,0.00,,,0.00,WUHU21623XXSP,2013-08-21 19:39:00,
2013-08-21 14:44:00,91.8,68.5,30.06,SW,225,3.6,6.9,47,0.00,,,0.00,WUHU21623XXSP,2013-08-21 19:44:00,
2013-08-21 14:49:00,91.8,68.4,30.06,WSW,247,7.8,7.8,47,0.00,,,0.00,WUHU21623XXSP,2013-08-21 19:49:00,
2013-08-21 14:54:00,91.4,68.2,30.06,WSW,247,0.2,7.8,47,0.00,,,0.00,WUHU21623XXSP,2013-08-21 19:54:00,
2013-08-21 14:59:00,91.2,68.1,30.06,West,270,0.0,0.7,47,0.00,,,0.00,WUHU21623XXSP,2013-08-21 19:59:00,
2013-08-21 15:04:00,91.2,68.1,30.05,WSW,247,0.0,0.7,47,0.00,,,0.00,WUHU21623XXSP,2013-08-21 20:04:00,
2013-08-21 15:09:00,91.9,68.7,30.06,WSW,247,8.1,8.1,47,0.00,,,0.00,WUHU21623XXSP,2013-08-21 20:09:00,
2013-08-21 15:14:00,91.8,68.5,30.05,SW,225,0.0,8.1,47,0.00,,,0.00,WUHU21623XXSP,2013-08-21 20:14:00,
2013-08-21 15:19:00,91.4,68.2,30.05,WSW,247,7.8,8.1,47,0.00,,,0.00,WUHU21623XXSP,2013-08-21 20:19:00,
2013-08-21 15:24:00,91.4,68.2,30.05,WSW,247,0.0,7.8,47,0.00,,,0.00,WUHU21623XXSP,2013-08-21 20:24:00,
2013-08-21 15:29:00,91.6,68.4,30.05,WSW,247,0.0,0.0,47,0.00,,,0.00,WUHU21623XXSP,2013-08-21 20:29:00,
2013-08-21 15:34:00,91.6,68.4,30.04,WSW,247,0.0,4.9,47,0.00,,,0.00,WUHU21623XXSP,2013-08-21 20:34:00,
2013-08-21 15:39:00,91.4,67.6,30.04,WSW,247,5.4,5.4,47,0.00,,,0.00,WUHU21623XXSP,2013-08-21 20:39:00,
2013-08-21 15:44:00,91.2,68.1,30.05,WSW,247,3.8,6.9,47,0.00,,,0.00,WUHU21623XXSP,2013-08-21 20:44:00,
2013-08-21 15:49:00,91.8,68.5,30.04,WSW,247,0.0,6.9,47,0.00,,,0.00,WUHU21623XXSP,2013-08-21 20:49:00,
2013-08-21 15:54:00,91.6,68.4,30.04,WSW,247,0.0,0.0,47,0.00,,,0.00,WUHU21623XXSP,2013-08-21 20:54:00,
2013-08-21 15:59:00,91.6,68.4,30.04,WSW,247,0.0,8.7,47,0.00,,,0.00,WUHU21623XXSP,2013-08-21 20:59:00,
2013-08-21 16:04:00,91.6,68.4,30.03,WSW,247,0.0,8.9,47,0.00,,,0.00,WUHU21623XXSP,2013-08-21 21:04:00,
2013-08-21 16:09:00,91.8,68.4,30.03,WSW,247,0.0,8.9,47,0.00,,,0.00,WUHU21623XXSP,2013-08-21 21:09:00,
2013-08-21 16:14:00,91.8,68.5,30.03,WSW,247,0.0,0.0,47,0.00,,,0.00,WUHU21623XXSP,2013-08-21 21:14:00,
2013-08-21 16:20:00,91.6,68.4,30.03,West,270,0.0,3.6,47,0.00,,,0.00,WUHU21623XXSP,2013-08-21 21:20:00,
2013-08-21 16:25:00,91.6,68.4,30.03,WSW,247,0.0,3.6,47,0.00,,,0.00,WUHU21623XXSP,2013-08-21 21:25:00,
2013-08-21 16:30:00,91.6,68.4,30.03,WSW,247,0.0,4.5,47,0.00,,,0.00,WUHU21623XXSP,2013-08-21 21:30:00,
2013-08-21 16:35:00,91.2,68.1,30.03,WSW,247,0.0,4.5,47,0.00,,,0.00,WUHU21623XXSP,2013-08-21 21:35:00,
2013-08-21 16:40:00,91.2,68.1,30.03,WSW,247,7.8,9.8,47,0.00,,,0.00,WUHU21623XXSP,2013-08-21 21:40:00,
2013-08-21 16:45:00,91.2,68.1,30.03,WSW,247,0.0,9.8,47,0.00,,,0.00,WUHU21623XXSP,2013-08-21 21:45:00,
2013-08-21 16:50:00,91.2,68.1,30.03,WSW,247,9.4,9.4,47,0.00,,,0.00,WUHU21623XXSP,2013-08-21 21:50:00,
2013-08-21 16:55:00,91.0,67.9,30.02,SSW,202,6.5,9.4,47,0.00,,,0.00,WUHU21623XXSP,2013-08-21 21:55:00,
2013-08-21 17:00:00,90.3,67.2,30.02,WSW,247,0.0,6.5,47,0.00,,,0.00,WUHU21623XXSP,2013-08-21 22:00:00,
2013-08-21 17:05:00,90.3,67.9,30.02,WSW,247,0.0,0.0,48,0.00,,,0.00,WUHU21623XXSP,2013-08-21 22:05:00,
2013-08-21 17:10:00,90.3,67.9,30.02,WSW,247,0.0,0.0,48,0.00,,,0.00,WUHU21623XXSP,2013-08-21 22:10:00,
2013-08-21 17:15:00,89.8,67.4,30.02,West,270,0.0,6.9,48,0.00,,,0.00,WUHU21623XXSP,2013-08-21 22:15:00,
2013-08-21 17:20:00,89.8,67.4,30.02,WSW,247,0.0,8.1,48,0.00,,,0.00,WUHU21623XXSP,2013-08-21 22:20:00,
2013-08-21 17:25:00,89.8,67.4,30.02,WSW,247,0.0,8.1,49,0.00,,,0.00,WUHU21623XXSP,2013-08-21 22:25:00,
2013-08-21 17:30:00,90.0,67.6,30.02,WSW,247,5.6,9.4,48,0.00,,,0.00,WUHU21623XXSP,2013-08-21 22:30:00,
2013-08-21 17:35:00,90.0,67.6,30.01,WSW,247,0.0,9.4,48,0.00,,,0.00,WUHU21623XXSP,2013-08-21 22:35:00,
2013-08-21 17:40:00,89.8,67.4,30.01,WSW,247,0.0,0.0,48,0.00,,,0.00,WUHU21623XXSP,2013-08-21 22:40:00,
2013-08-21 17:45:00,89.4,67.1,30.01,WSW,247,0.0,0.0,48,0.00,,,0.00,WUHU21623XXSP,2013-08-21 22:45:00,
2013-08-21 17:50:00,89.2,67.6,30.01,WSW,247,0.0,0.0,49,0.00,,,0.00,WUHU21623XXSP,2013-08-21 22:50:00,
2013-08-21 17:55:00,88.9,67.2,30.01,WSW,247,0.0,0.0,49,0.00,,,0.00,WUHU21623XXSP,2013-08-21 22:55:00,
2013-08-21 18:00:00,88.7,67.1,30.01,WSW,247,0.0,0.0,49,0.00,,,0.00,WUHU21623XXSP,2013-08-21 23:00:00,
2013-08-21 18:05:00,88.5,67.6,30.01,WSW,247,0.0,8.1,50,0.00,,,0.00,WUHU21623XXSP,2013-08-21 23:05:00,
2013-08-21 18:10:00,88.2,67.2,30.01,WSW,247,0.0,8.1,50,0.00,,,0.00,WUHU21623XXSP,2013-08-21 23:10:00,
2013-08-21 18:15:00,88.2,67.2,30.00,West,270,0.0,0.0,50,0.00,,,0.00,WUHU21623XXSP,2013-08-21 23:15:00,
2013-08-21 18:21:00,87.6,67.1,30.01,SW,225,0.0,5.1,50,0.00,,,0.00,WUHU21623XXSP,2013-08-21 23:21:00,
2013-08-21 18:26:00,87.4,67.1,30.01,SW,225,0.0,5.1,51,0.00,,,0.00,WUHU21623XXSP,2013-08-21 23:26:00,
2013-08-21 18:31:00,87.4,67.0,30.01,SW,225,4.5,4.5,51,0.00,,,0.00,WUHU21623XXSP,2013-08-21 23:31:00,
2013-08-21 18:36:00,87.1,66.8,30.01,WSW,247,0.0,4.5,51,0.00,,,0.00,WUHU21623XXSP,2013-08-21 23:36:00,
2013-08-21 18:41:00,86.7,67.0,30.01,SW,225,0.0,0.0,52,0.00,,,0.00,WUHU21623XXSP,2013-08-21 23:41:00,
2013-08-21 18:46:00,86.5,66.8,30.00,WSW,247,0.0,0.0,52,0.00,,,0.00,WUHU21623XXSP,2013-08-21 23:46:00,
2013-08-21 18:51:00,86.2,66.5,30.00,SSW,202,7.4,7.4,52,0.00,,,0.00,WUHU21623XXSP,2013-08-21 23:51:00,
2013-08-21 18:56:00,85.8,66.2,30.00,South,180,2.0,7.4,52,0.00,,,0.00,WUHU21623XXSP,2013-08-21 23:56:00,
2013-08-21 19:01:00,85.8,66.7,30.00,WSW,247,0.0,6.3,53,0.00,,,0.00,WUHU21623XXSP,2013-08-22 00:01:00,
2013-08-21 19:06:00,85.3,66.4,30.00,WSW,247,0.0,0.0,53,0.00,,,0.00,WUHU21623XXSP,2013-08-22 00:06:00,
2013-08-21 19:11:00,85.1,66.1,30.00,WSW,247,0.0,0.0,54,0.00,,,0.00,WUHU21623XXSP,2013-08-22 00:11:00,
2013-08-21 19:16:00,84.7,66.3,30.00,SW,225,0.0,0.0,54,0.00,,,0.00,WUHU21623XXSP,2013-08-22 00:16:00,
2013-08-21 19:21:00,84.6,66.6,30.00,SW,225,0.0,0.0,55,0.00,,,0.00,WUHU21623XXSP,2013-08-22 00:21:00,
2013-08-21 19:26:00,84.0,66.1,30.00,SW,225,0.0,6.0,55,0.00,,,0.00,WUHU21623XXSP,2013-08-22 00:26:00,
2013-08-21 19:31:00,83.8,66.5,30.00,SW,225,0.0,6.0,56,0.00,,,0.00,WUHU21623XXSP,2013-08-22 00:31:00,
2013-08-21 19:36:00,83.5,66.1,30.01,WSW,247,0.0,0.0,56,0.00,,,0.00,WUHU21623XXSP,2013-08-22 00:36:00,
2013-08-21 19:41:00,82.9,66.1,30.01,SSW,202,0.0,0.0,57,0.00,,,0.00,WUHU21623XXSP,2013-08-22 00:41:00,
2013-08-21 19:46:00,82.8,66.4,30.01,SSW,202,0.0,0.0,58,0.00,,,0.00,WUHU21623XXSP,2013-08-22 00:46:00,
2013-08-21 19:51:00,82.6,66.2,30.01,SW,225,0.0,0.0,58,0.00,,,0.00,WUHU21623XXSP,2013-08-22 00:51:00,
2013-08-21 19:56:00,82.0,66.3,30.02,WSW,247,0.0,0.0,59,0.00,,,0.00,WUHU21623XXSP,2013-08-22 00:56:00,
2013-08-21 20:01:00,81.9,66.3,30.02,WSW,247,0.0,0.0,59,0.00,,,0.00,WUHU21623XXSP,2013-08-22 01:01:00,
2013-08-21 20:06:00,81.5,66.3,30.02,WSW,247,0.0,0.0,60,0.00,,,0.00,WUHU21623XXSP,2013-08-22 01:06:00,
2013-08-21 20:11:00,81.1,66.6,30.03,WSW,247,0.0,0.0,61,0.00,,,0.00,WUHU21623XXSP,2013-08-22 01:11:00,
2013-08-21 20:16:00,81.0,66.3,30.03,WSW,247,0.0,0.0,61,0.00,,,0.00,WUHU21623XXSP,2013-08-22 01:16:00,
2013-08-21 20:21:00,80.4,66.4,30.03,WSW,247,0.0,0.0,62,0.00,,,0.00,WUHU21623XXSP,2013-08-22 01:21:00,
2013-08-21 20:26:00,80.4,66.7,30.04,WSW,247,0.0,0.0,63,0.00,,,0.00,WUHU21623XXSP,2013-08-22 01:26:00,
2013-08-21 20:31:00,80.2,66.5,30.04,WSW,247,0.0,0.0,63,0.00,,,0.00,WUHU21623XXSP,2013-08-22 01:31:00,
2013-08-21 20:36:00,79.9,66.6,30.04,WSW,247,0.0,0.0,64,0.00,,,0.00,WUHU21623XXSP,2013-08-22 01:36:00,
2013-08-21 20:41:00,79.7,66.4,30.05,WSW,247,0.0,0.0,64,0.00,,,0.00,WUHU21623XXSP,2013-08-22 01:41:00,
2013-08-21 20:46:00,79.5,66.7,30.06,WSW,247,0.0,0.0,65,0.00,,,0.00,WUHU21623XXSP,2013-08-22 01:46:00,
2013-08-21 20:51:00,79.3,67.0,30.05,WSW,247,0.0,0.0,66,0.00,,,0.00,WUHU21623XXSP,2013-08-22 01:51:00,
2013-08-21 20:56:00,79.3,67.0,30.06,WSW,247,0.0,0.0,66,0.00,,,0.00,WUHU21623XXSP,2013-08-22 01:56:00,
2013-08-21 21:01:00,79.2,66.4,30.06,WSW,247,0.0,0.0,65,0.00,,,0.00,WUHU21623XXSP,2013-08-22 02:01:00,
2013-08-21 21:06:00,79.0,66.6,30.06,WSW,247,0.0,0.0,66,0.00,,,0.00,WUHU21623XXSP,2013-08-22 02:06:00,
2013-08-21 21:11:00,78.8,66.5,30.06,WSW,247,0.0,0.0,66,0.00,,,0.00,WUHU21623XXSP,2013-08-22 02:11:00,
2013-08-21 21:16:00,78.6,66.3,30.06,WSW,247,0.0,0.0,66,0.00,,,0.00,WUHU21623XXSP,2013-08-22 02:16:00,
2013-08-21 21:21:00,78.6,66.7,30.06,WSW,247,0.0,0.0,67,0.00,,,0.00,WUHU21623XXSP,2013-08-22 02:21:00,
2013-08-21 21:26:00,78.4,66.5,30.06,WSW,247,0.0,0.0,67,0.00,,,0.00,WUHU21623XXSP,2013-08-22 02:26:00,
2013-08-21 21:31:00,78.1,66.7,30.06,WSW,247,0.0,0.0,68,0.00,,,0.00,WUHU21623XXSP,2013-08-22 02:31:00,
2013-08-21 21:36:00,77.9,66.7,30.06,WSW,247,0.0,0.0,68,0.00,,,0.00,WUHU21623XXSP,2013-08-22 02:36:00,
2013-08-21 21:41:00,77.7,66.8,30.06,WSW,247,0.0,0.0,69,0.00,,,0.00,WUHU21623XXSP,2013-08-22 02:41:00,
2013-08-21 21:46:00,77.5,66.6,30.06,WSW,247,0.0,0.0,69,0.00,,,0.00,WUHU21623XXSP,2013-08-22 02:46:00,
2013-08-21 21:51:00,77.4,66.4,30.06,WSW,247,0.0,0.0,69,0.00,,,0.00,WUHU21623XXSP,2013-08-22 02:51:00,
2013-08-21 21:56:00,77.2,66.7,30.06,WSW,247,0.0,0.0,70,0.00,,,0.00,WUHU21623XXSP,2013-08-22 02:56:00,
2013-08-21 22:01:00,77.0,66.6,30.05,WSW,247,0.0,0.0,70,0.00,,,0.00,WUHU21623XXSP,2013-08-22 03:01:00,
2013-08-21 22:06:00,76.8,66.4,30.05,WSW,247,0.0,0.0,70,0.00,,,0.00,WUHU21623XXSP,2013-08-22 03:06:00,
2013-08-21 22:11:00,76.8,66.8,30.05,WSW,247,0.0,0.0,71,0.00,,,0.00,WUHU21623XXSP,2013-08-22 03:11:00,
2013-08-21 22:16:00,76.8,66.8,30.05,WSW,247,0.0,0.0,71,0.00,,,0.00,WUHU21623XXSP,2013-08-22 03:16:00,
2013-08-21 22:21:00,76.8,66.8,30.05,SW,225,0.0,0.0,71,0.00,,,0.00,WUHU21623XXSP,2013-08-22 03:21:00,
2013-08-21 22:26:00,76.8,66.8,30.04,SSW,202,0.0,0.0,71,0.00,,,0.00,WUHU21623XXSP,2013-08-22 03:26:00,
2013-08-21 22:31:00,76.8,66.8,30.05,SSW,202,0.0,0.0,71,0.00,,,0.00,WUHU21623XXSP,2013-08-22 03:31:00,
2013-08-21 22:36:00,76.8,67.1,30.05,SSW,202,0.0,0.0,72,0.00,,,0.00,WUHU21623XXSP,2013-08-22 03:36:00,
2013-08-21 22:41:00,76.8,67.1,30.05,SSW,202,0.0,0.0,72,0.00,,,0.00,WUHU21623XXSP,2013-08-22 03:41:00,
2013-08-21 22:46:00,76.8,67.1,30.05,SSW,202,0.0,0.0,72,0.00,,,0.00,WUHU21623XXSP,2013-08-22 03:46:00,
2013-08-21 22:51:00,76.8,67.1,30.05,WSW,247,0.0,0.0,72,0.00,,,0.00,WUHU21623XXSP,2013-08-22 03:51:00,
2013-08-21 22:56:00,76.8,67.1,30.05,SW,225,0.0,0.0,72,0.00,,,0.00,WUHU21623XXSP,2013-08-22 03:56:00,
2013-08-21 23:01:00,76.8,67.1,30.05,SSW,202,3.4,3.4,72,0.00,,,0.00,WUHU21623XXSP,2013-08-22 04:01:00,
2013-08-21 23:02:00,76.8,67.1,30.05,SW,225,0.0,3.4,72,0.00,,,0.00,WUHU21623XXSP,2013-08-22 04:02:00,
2013-08-21 23:07:00,76.8,67.0,30.05,SW,225,0.0,3.4,72,0.00,,,0.00,WUHU21623XXSP,2013-08-22 04:07:00,
2013-08-21 23:12:00,76.6,67.0,30.05,SSW,202,0.0,0.0,72,0.00,,,0.00,WUHU21623XXSP,2013-08-22 04:12:00,
2013-08-21 23:17:00,76.6,67.3,30.05,South,180,0.0,0.0,73,0.00,,,0.00,WUHU21623XXSP,2013-08-22 04:17:00,
2013-08-21 23:22:00,76.6,67.3,30.04,SSW,202,0.0,0.0,73,0.00,,,0.00,WUHU21623XXSP,2013-08-22 04:22:00,
2013-08-21 23:27:00,76.6,67.3,30.03,SSW,202,0.0,0.0,73,0.00,,,0.00,WUHU21623XXSP,2013-08-22 04:27:00,
2013-08-21 23:32:00,76.5,67.2,30.03,SSW,202,0.0,0.0,73,0.00,,,0.00,WUHU21623XXSP,2013-08-22 04:32:00,
2013-08-21 23:37:00,76.3,67.0,30.04,SW,225,0.0,0.0,73,0.00,,,0.00,WUHU21623XXSP,2013-08-22 04:37:00,
2013-08-21 23:42:00,76.3,67.0,30.04,WSW,247,0.0,0.0,73,0.00,,,0.00,WUHU21623XXSP,2013-08-22 04:42:00,
2013-08-21 23:47:00,76.5,67.2,30.03,SSW,202,5.4,5.4,73,0.00,,,0.00,WUHU21623XXSP,2013-08-22 04:47:00,
2013-08-21 23:52:00,76.3,67.0,30.03,SSW,202,0.0,5.4,73,0.00,,,0.00,WUHU21623XXSP,2013-08-22 04:52:00,
2013-08-21 23:57:00,76.3,67.0,30.04,SSW,202,0.0,4.7,73,0.00,,,0.00,WUHU21623XXSP,2013-08-22 04:57:00,